Regional Weather Roundup
Issued by NWS

Home | Current Version | Previous Version | Graphics & Text | Print | Product List | Glossary On
Versions: 1 2 3 4 5 6 7 8 9 10 11 12 13 14 15 16 17 18 19 20 21 22 23 24 25 26 27 28 29 30 31 32 33 34 35 36 37 38 39 40 41 42 43 44 45 46 47 48 49 50
000
ASUS45 KBOU 271007
RWRCO

WEATHER ROUNDUP FOR COLORADO
NATIONAL WEATHER SERVICE DENVER/BOULDER CO
400 AM MDT SUN JUL 27 2014

NOTE: "FAIR" INDICATES FEW OR NO CLOUDS BELOW 12000 FEET WITH NO
SIGNIFICANT WEATHER AND/OR OBSTRUCTIONS TO VISIBILITY.

COZ001>005-013-030-031-271100-
...NORTHWEST COLORADO...

CITY           SKY/WX    TMP DP  RH WIND       PRES   REMARKS
CRAIG          PTCLDY    50  49  96 CALM      30.34R
HAYDEN         PTCLDY    55  46  71 E9        30.36R
MEEKER         MOCLDY    60  49  66 VRB5      30.34S
MOUNT WERNER   NOT AVBL
STEAMBOAT SPGS PTCLDY    50  47  87 CALM      30.38S
WALDEN         CLEAR     43  36  75 SE3       30.48S
$$

COZ006>008-011-271100-
...WEST CENTRAL VALLEYS...

CITY           SKY/WX    TMP DP  RH WIND       PRES   REMARKS
GRAND JUNCTION PTCLDY    65  51  60 CALM      30.19R
MONTROSE       CLEAR     63  50  62 S6        30.27S
EAGLE          MOCLDY    52  52 100 E3        30.43S
RIFLE          MOCLDY    61  56  83 SE3       30.29R
DELTA          CLEAR     67  45  44 NE6       30.23R
NUCLA          CLEAR     68  45  42 E9        30.28S
$$

COZ017>023-064>068-271100-
...SOUTHWEST COLORADO...

CITY           SKY/WX    TMP DP  RH WIND       PRES   REMARKS
DURANGO        PTCLDY    67  46  47 CALM      30.35R
CORTEZ         CLEAR     59  47  64 N7        30.25R
PAGOSA SPRINGS PTCLDY    58  47  67 W3        30.42R
TELLURIDE      CLEAR     57  46  67 E5        30.51S
WOLF CREEK PAS NOT AVBL
$$

COZ009-010-012-014-032>034-037-058>063-271100-
...CENTRAL COLORADO...

CITY           SKY/WX    TMP DP  RH WIND       PRES   REMARKS
ASPEN          CLEAR     50  42  74 S3        30.44S
BUENA VISTA    CLEAR     51  46  83 NW3       30.49S
COPPER MTN     CLEAR     54  32  43 S6        30.76S
BERTHOUD PASS  FAIR      45  32  61 N5        30.81S
COTTONWOOD PAS CLEAR     59  41  51 W7        30.60S
GUNNISON       CLEAR     54  46  76 CALM      30.49R
KREMMLING      PTCLDY    50  45  81 CALM      30.48S
LEADVILLE      CLEAR     42  39  89 S5        30.60S
MONARCH PASS   CLEAR     50  39  66 W9        30.85S
SALIDA         CLEAR    N/A N/A N/A NW5       30.54S
SUNLIGHT       PTCLDY    55  37  50 CALM      30.66S
WILKERSON PASS NOT AVBL
$$

COZ069>075-271100-
...SAN LUIS VALLEY/SANGRE DE CRISTO MOUNTAINS...

CITY           SKY/WX    TMP DP  RH WIND       PRES   REMARKS
ALAMOSA        PTCLDY    54  50  86 W5        30.43R
LA VETA PASS   NOT AVBL
SAGUACHE       CLEAR     54  46  76 NW12      30.46R
$$

COZ035-036-038>040-271100-
...NORTHERN COLORADO FRONT RANGE...

CITY           SKY/WX    TMP DP  RH WIND       PRES   REMARKS
DENVER INTL AP PTCLDY    58  50  75 SE8       30.26R
DMNS CITY PARK   N/A     62  54  73 W5        30.27R
AURORA         PTCLDY    61  52  72 SW7       30.28R
FRONT RANGE AP NOT AVBL
ERIE MUNI ARPT CLEAR     59  56  88 NW6       30.26R
BOULDER MUN AP CLEAR     63  50  63 CALM      30.28R
CENTENNIAL     PTCLDY    62  51  67 W9        30.29R
BROOMFIELD     CLEAR     63  52  67 N10       30.29R
FORT COLLINS   CLEAR     61  54  77 N8        30.29R
LONGMONT       CLEAR     65  54  65 N3        30.28R
$$

COZ041-046-047-076>085-087-088-271100-
...PIKES PEAK/PALMER DIVIDE AND SOUTHERN FOOTHILLS...

CITY           SKY/WX    TMP DP  RH WIND       PRES   REMARKS
COLO. SPRINGS  PTCLDY    63  50  62 E8        30.33R
A. F. ACADEMY  CLEAR     56  53  89 N9        30.34S
ELLICOTT       PTCLDY    63  51  65 E10       30.32S
FALCON         PTCLDY    58  49  71 SE5       30.39R
FORT CARSON    PTCLDY    59  54  85 E8        30.30R
LIMON          PTCLDY    64  58  80 SE6       30.28S
MONUMENT HILL  CLEAR     54  48  82 S8        30.37S
TRINIDAD         N/A     67  55  65 W10       30.29S
$$

COZ042>045-048>051-090-091-271100-
...NORTHEAST COLORADO...

CITY           SKY/WX    TMP DP  RH WIND       PRES   REMARKS
GREELEY ARPT   CLEAR     59  52  77 NE7       30.25R
AKRON          CLEAR     64  61  90 SE7       30.25R
BURLINGTON     MOCLDY    64  60  87 SE6       30.22S
WRAY             N/A     63  63  99 CALM      30.20R
STERLING       CLEAR     66  64  94 NE6       30.22R
HOLYOKE        CLEAR     61  59  94 N5        30.21R
FORT MORGAN    CLEAR     62  60  94 NE6       30.24R
$$

COZ086-089-092>099-271100-
...SOUTHEAST COLORADO...

CITY           SKY/WX    TMP DP  RH WIND       PRES   REMARKS
PUEBLO         PTCLDY    64  60  87 NE3       30.22R
LA JUNTA       MOCLDY    68  60  75 E3        30.19S
LAMAR          CLOUDY    67  63  87 N7        30.14S
SPRINGFIELD      N/A     67  63  87 CALM      30.16R
$$



USA.gov is the U.S. government's official web portal to all federal, state and local government web resources and services.